Location: Maiden
(35.5760°N, 81.2120°W)
Time: 02:24:36
(UTC-04:00)

A-11 Canister half - Pass Details

Date: 09 August 2020
Orbit: 1527 x 1682 km, 47.3° (Epoch: 25 September)

Event Time Altitude Azimuth Distance (km) Brightness Sun altitude
Rises 19:19:30 0° 303° (WNW) 4,923 13.1 11.1°
Reaches altitude 10° 19:22:41 10° 305° (NW) 3,921 12.7 10.4°
Maximum altitude 19:32:47 86° 34° (NE) 1,639 9.4 8.4°
Drops below altitude 10° 19:42:32 10° 124° (SE) 3,795 10.5 6.5°
Sets 19:45:34 0° 125° (SE) 4,758 11.0 5.9°
